Weather History for Fort Myers, FL

Change the Weather History Date:

Friday, April 12, 2013

  Actual Average Record
Temperature  
Mean Temperature 81 °F 73 °F  
Max Temperature 88 °F 84 °F 92 °F (1979)
Min Temperature 74 °F 63 °F 48 °F (1973)
Degree Days  
Heating Degree Days 0 0  
Month to date heating degree days 0 0  
Since 1 July heating degree days 201 284  
Cooling Degree Days 16 8  
Month to date cooling degree days 121 92  
Year to date cooling degree days 503 453  
Growing Degree Days 30 (Base 50)    
Moisture  
Dew Point 72 °F    
Average Humidity 83    
Maximum Humidity 94    
Minimum Humidity 55    
Precipitation  
Precipitation T in 0.07 in 2.41 in (1997)
Month to date precipitation 1.34 0.92  
Year to date precipitation 4.60 7.89  
Sea Level Pressure  
Sea Level Pressure 29.91 in    
Wind  
Wind Speed 9 mph (South)    
Max Wind Speed 16 mph    
Max Gust Speed 24 mph    
Visibility 10 miles    
Events      
T = Trace of Precipitation, MM = Missing Value Source: NWS Daily Summary

Daily Weather History Graph

Daily Weather History Graph

Search for Another Location

Airport:

Trip Planner

Search our weather history database for the weather conditions in past years. The results will help you decide how hot, cold, wet, or windy it might be!

Date:

Astronomy

Apr. 12, 2013 Rise Set
Actual Time 7:06 AM EDT 7:50 PM EDT
Civil Twilight 6:42 AM EDT 8:13 PM EDT
Nautical Twilight 6:15 AM EDT 8:41 PM EDT
Astronomical Twilight 5:47 AM EDT 9:09 PM EDT
Moon 8:27 AM EDT (4/12) 10:05 PM EDT (4/12)
Length of Visible Light 13h 30m
Length of Day
12h 43m
Waxing Crescent, 5% of the Moon is Illuminated
Apr 12
Waxing Crescent
Apr 18
First Quarter
Apr 25
Full
May 2
Last Quarter
May 9
New

Hourly Weather History & Observations

Time (EDT) Temp. Heat Index Dew Point Humidity Pressure Visibility Wind Dir Wind Speed Gust Speed Precip Events Conditions
2:53 AM 73.9 °F - 72.0 °F 93% 29.91 in 10.0 mi ESE 3.5 mph - 0.00 in   Mostly Cloudy
3:51 AM 75.2 °F - 71.6 °F 89% 29.90 in 10.0 mi SE 3.5 mph - N/A   Overcast
3:53 AM 73.9 °F - 72.0 °F 93% 29.91 in 10.0 mi SE 3.5 mph - N/A   Overcast
4:53 AM 75.0 °F - 72.0 °F 90% 29.88 in 10.0 mi SSE 5.8 mph - N/A   Mostly Cloudy
5:15 AM 75.2 °F - 73.4 °F 94% 29.88 in 10.0 mi SSE 4.6 mph - N/A   Overcast
5:29 AM 75.2 °F - 73.4 °F 94% 29.88 in 10.0 mi SE 6.9 mph - N/A   Overcast
5:53 AM 75.0 °F - 73.0 °F 94% 29.89 in 10.0 mi SE 4.6 mph - N/A   Mostly Cloudy
6:01 AM 73.4 °F - 71.6 °F 94% 29.89 in 9.0 mi SE 3.5 mph - N/A   Scattered Clouds
6:13 AM 73.4 °F - 71.6 °F 94% 29.89 in 9.0 mi SE 3.5 mph - N/A   Mostly Cloudy
6:51 AM 73.4 °F - 73.4 °F 100% 29.88 in 9.0 mi SSE 5.8 mph - N/A   Scattered Clouds
6:53 AM 73.9 °F - 72.0 °F 93% 29.89 in 9.0 mi SSE 5.8 mph - N/A   Partly Cloudy
7:33 AM 73.4 °F - 73.4 °F 100% 29.91 in 7.0 mi SE 3.5 mph - N/A   Mostly Cloudy
7:44 AM 73.4 °F - 73.4 °F 100% 29.92 in 7.0 mi SE 3.5 mph - N/A   Mostly Cloudy
7:53 AM 75.0 °F - 73.0 °F 94% 29.92 in 8.0 mi SE 4.6 mph - N/A   Mostly Cloudy
8:15 AM 75.2 °F - 73.4 °F 94% 29.92 in 8.0 mi SSE 4.6 mph - N/A   Mostly Cloudy
8:28 AM 75.2 °F - 73.4 °F 94% 29.92 in 9.0 mi South 5.8 mph - N/A   Overcast
8:53 AM 77.0 °F - 73.9 °F 90% 29.92 in 9.0 mi SSE 9.2 mph - N/A   Overcast
9:53 AM 81.0 °F 85.8 °F 73.0 °F 77% 29.93 in 10.0 mi South 10.4 mph 16.1 mph N/A   Mostly Cloudy
10:27 AM 82.4 °F 87.2 °F 71.6 °F 70% 29.92 in 10.0 mi SSW 12.7 mph - N/A   Scattered Clouds
10:53 AM 84.0 °F 89.0 °F 71.1 °F 65% 29.93 in 10.0 mi SSW 15.0 mph 21.9 mph N/A   Partly Cloudy
11:53 AM 86.0 °F 91.5 °F 71.1 °F 61% 29.95 in 10.0 mi South 12.7 mph 18.4 mph N/A   Scattered Clouds
12:53 PM 86.0 °F 90.7 °F 70.0 °F 59% 29.94 in 10.0 mi SSW 15.0 mph 21.9 mph N/A   Clear
1:53 PM 87.1 °F 92.0 °F 70.0 °F 57% 29.93 in 10.0 mi SSW 12.7 mph 19.6 mph N/A   Clear
2:53 PM 86.0 °F 90.1 °F 69.1 °F 57% 29.91 in 10.0 mi SSW 11.5 mph 19.6 mph N/A   Clear
3:53 PM 86.0 °F 90.7 °F 70.0 °F 59% 29.89 in 10.0 mi SW 10.4 mph - N/A   Clear
4:53 PM 84.0 °F 89.0 °F 71.1 °F 65% 29.90 in 10.0 mi SSW 9.2 mph - N/A   Clear
5:53 PM 82.9 °F 87.0 °F 70.0 °F 65% 29.89 in 10.0 mi SSW 12.7 mph - N/A   Clear
6:53 PM 80.1 °F 83.8 °F 72.0 °F 76% 29.90 in 10.0 mi SW 9.2 mph - N/A   Clear
7:53 PM 78.1 °F - 72.0 °F 81% 29.91 in 10.0 mi SW 9.2 mph - N/A   Clear
8:53 PM 78.1 °F - 72.0 °F 81% 29.92 in 10.0 mi SSW 10.4 mph - N/A   Clear
9:53 PM 77.0 °F - 72.0 °F 84% 29.92 in 10.0 mi SSW 5.8 mph - N/A   Clear
10:53 PM 77.0 °F - 72.0 °F 84% 29.93 in 10.0 mi SSW 9.2 mph - N/A   Clear
11:53 PM 77.0 °F - 71.1 °F 82% 29.92 in 10.0 mi South 6.9 mph - N/A   Clear